RYR49KF EDLV-LEMG

Flight info

Callsign RYR49KF
Flight time 2h 41m
Altitude 24000
Route VEBAK2R VEBAK Z283 MODRU Z717 MAS/N0459F360 UM617 CIV/N0458F370 N872 MEDIL DCT KOVIN DCT DUCRA UM728 RESMI UN857 DISAK DCT ARKIP DCT ARNAV DCT LMG DCT UVELI DCT OSMOB DCT VAVIX DCT NETUK N857 BAN N10 CJN L27 BLN
Aircraft B38M/M-SDE1FGHILORVWXY/HB1

Departure

Time 2026-05-08 14:38
Airport Weeze (Niederrhein) Airport (EDLV)

Arrival

Time 2026-05-08 17:19
Airport Málaga-Costa del Sol Airport (LEMG)
Time Latitude Longitude Altitude Speed Heading
2026-05-08 14:23 51.59960 6.14735 114 ft 0 kts 269°
2026-05-08 14:29 51.59960 6.14749 114 ft 4 kts 282°
2026-05-08 14:29 51.59949 6.14785 111 ft 4 kts 300°
2026-05-08 14:29 51.59946 6.14794 111 ft 2 kts 298°
2026-05-08 14:33 51.59948 6.14791 142 ft 0 kts 323°
2026-05-08 14:33 51.59958 6.14793 113 ft 5 kts
2026-05-08 14:33 51.60038 6.14785 112 ft 15 kts 317°
2026-05-08 14:33 51.60047 6.14603 111 ft 18 kts 266°
2026-05-08 14:34 51.60050 6.14397 112 ft 19 kts 272°
2026-05-08 14:34 51.60056 6.14181 114 ft 20 kts 272°
2026-05-08 14:34 51.60061 6.13956 116 ft 20 kts 270°
2026-05-08 14:34 51.60065 6.13720 112 ft 22 kts 273°
2026-05-08 14:35 51.60071 6.13462 114 ft 24 kts 272°
2026-05-08 14:35 51.60077 6.13182 112 ft 26 kts 272°
2026-05-08 14:35 51.60084 6.12875 110 ft 28 kts 272°
2026-05-08 14:35 51.60090 6.12561 112 ft 27 kts 272°
2026-05-08 14:36 51.60098 6.12484 110 ft 5 kts 303°
2026-05-08 14:36 51.60128 6.12458 113 ft 6 kts 356°
2026-05-08 14:36 51.60172 6.12458 113 ft 7 kts
2026-05-08 14:36 51.60232 6.12464 115 ft 10 kts
2026-05-08 14:37 51.60287 6.12506 114 ft 5 kts 91°
2026-05-08 14:37 51.60280 6.12657 112 ft 41 kts 92°
2026-05-08 14:37 51.60261 6.13589 120 ft 123 kts 92°
2026-05-08 14:37 51.60244 6.15352 141 ft 188 kts 90°
2026-05-08 14:38 51.60231 6.17545 949 ft 199 kts 91°
2026-05-08 14:38 51.60201 6.19814 2031 ft 207 kts 91°
2026-05-08 14:38 51.60145 6.22249 2770 ft 227 kts 91°
2026-05-08 14:38 51.60066 6.24802 3683 ft 233 kts 92°
2026-05-08 14:39 51.59998 6.27306 4922 ft 221 kts 92°
2026-05-08 14:39 51.59918 6.29901 5438 ft 248 kts 94°
2026-05-08 14:39 51.59802 6.32763 6166 ft 262 kts 95°
2026-05-08 14:39 51.59666 6.35736 7050 ft 268 kts 95°
2026-05-08 14:40 51.59446 6.38720 7961 ft 275 kts 107°
2026-05-08 14:40 51.58482 6.41372 8792 ft 277 kts 136°
2026-05-08 14:40 51.56861 6.43095 9540 ft 286 kts 164°
2026-05-08 14:40 51.54946 6.43185 10451 ft 284 kts 196°
2026-05-08 14:41 51.53194 6.41614 10947 ft 299 kts 220°
2026-05-08 14:41 51.51473 6.39555 11336 ft 319 kts 211°
2026-05-08 14:41 51.49461 6.37795 11685 ft 339 kts 207°
2026-05-08 14:41 51.47290 6.36130 12149 ft 353 kts 205°
2026-05-08 14:42 51.45007 6.34564 12864 ft 358 kts 203°
2026-05-08 14:42 51.42722 6.33107 13610 ft 362 kts 202°
2026-05-08 14:42 51.40357 6.31651 14291 ft 366 kts 201°
2026-05-08 14:42 51.37975 6.30210 14951 ft 369 kts 201°
2026-05-08 14:43 51.35601 6.28794 15584 ft 372 kts 201°
2026-05-08 14:43 51.33154 6.27345 16229 ft 375 kts 201°
2026-05-08 14:43 51.30708 6.25906 16846 ft 378 kts 201°
2026-05-08 14:43 51.28223 6.24446 17467 ft 381 kts 201°
2026-05-08 14:44 51.25720 6.22978 18078 ft 384 kts 201°
2026-05-08 14:44 51.23235 6.21522 18620 ft 387 kts 201°
2026-05-08 14:44 51.20692 6.20033 19142 ft 389 kts 201°
2026-05-08 14:44 51.18132 6.18536 19666 ft 392 kts 201°
2026-05-08 14:45 51.15562 6.17036 20176 ft 394 kts 201°
2026-05-08 14:45 51.12999 6.15542 20682 ft 397 kts 201°
2026-05-08 14:45 51.10394 6.14026 21165 ft 400 kts 201°
2026-05-08 14:45 51.07797 6.12516 21657 ft 402 kts 201°
2026-05-08 14:46 51.05157 6.10975 22136 ft 405 kts 202°
2026-05-08 14:46 51.02706 6.08778 22609 ft 406 kts 219°
2026-05-08 14:46 51.00780 6.05509 23081 ft 408 kts 236°
2026-05-08 14:46 50.99290 6.01652 23549 ft 411 kts 239°
2026-05-08 14:47 50.97844 5.97709 23957 ft 414 kts 242°
2026-05-08 14:47 50.96805 5.93442 24377 ft 416 kts 254°
2026-05-08 14:47 50.95993 5.89020 24760 ft 419 kts 253°
2026-05-08 14:47 50.95191 5.84634 25172 ft 421 kts 253°
2026-05-08 14:48 50.94384 5.80154 25583 ft 424 kts 253°
2026-05-08 14:48 50.93577 5.75647 25985 ft 426 kts 253°
2026-05-08 14:48 50.92768 5.71123 26382 ft 428 kts 253°
2026-05-08 14:48 50.91948 5.66540 26764 ft 431 kts 253°
2026-05-08 14:49 50.91125 5.61959 27124 ft 434 kts 253°
2026-05-08 14:49 50.90296 5.57355 27480 ft 437 kts 253°
2026-05-08 14:49 50.89459 5.52713 27866 ft 439 kts 253°
2026-05-08 14:49 50.88617 5.48060 28225 ft 441 kts 253°
2026-05-08 14:50 50.87769 5.43381 28577 ft 444 kts 253°
2026-05-08 14:50 50.86923 5.38728 28924 ft 446 kts 253°
2026-05-08 14:50 50.86061 5.33996 29261 ft 448 kts 253°
2026-05-08 14:50 50.85192 5.29242 29604 ft 451 kts 253°
2026-05-08 14:51 50.84315 5.24455 29951 ft 453 kts 253°
2026-05-08 14:51 50.83436 5.19670 30342 ft 452 kts 253°
2026-05-08 14:51 50.82563 5.14929 30737 ft 451 kts 253°
2026-05-08 14:51 50.81696 5.10231 31075 ft 452 kts 253°
2026-05-08 14:52 50.80816 5.05472 31440 ft 451 kts 253°
2026-05-08 14:52 50.79057 4.96012 32212 ft 450 kts 254°
2026-05-08 14:52 50.78171 4.91262 32588 ft 449 kts 254°
2026-05-08 14:53 50.77288 4.86540 32961 ft 448 kts 253°
2026-05-08 14:53 50.76702 4.83410 33192 ft 448 kts 254°
2026-05-08 14:53 50.75814 4.78679 33561 ft 447 kts 254°
2026-05-08 14:53 50.74644 4.72466 34039 ft 447 kts 254°
2026-05-08 14:54 50.74044 4.69287 34248 ft 446 kts 254°
2026-05-08 14:54 50.73155 4.64585 34541 ft 446 kts 254°
2026-05-08 14:54 50.72274 4.59947 34773 ft 447 kts 254°
2026-05-08 14:54 50.71379 4.55242 35064 ft 446 kts 254°
2026-05-08 14:55 50.70485 4.50560 35355 ft 446 kts 254°
2026-05-08 14:55 50.69586 4.45863 35642 ft 445 kts 254°
2026-05-08 14:55 50.68692 4.41197 35923 ft 445 kts 254°
2026-05-08 14:55 50.67790 4.36505 36106 ft 446 kts 254°
2026-05-08 14:56 50.66894 4.31855 36091 ft 444 kts 254°
2026-05-08 14:56 50.65107 4.22617 36097 ft 443 kts 254°
2026-05-08 14:57 50.63302 4.13329 36080 ft 443 kts 254°
2026-05-08 14:57 50.61486 4.04040 36071 ft 443 kts 253°
2026-05-08 14:58 50.59666 3.94789 36072 ft 443 kts 253°
2026-05-08 14:58 50.57164 3.85994 36057 ft 444 kts 232°
2026-05-08 14:58 50.54955 3.82583 36068 ft 448 kts 217°
2026-05-08 14:59 50.52253 3.80113 36080 ft 451 kts 207°
2026-05-08 14:59 50.43650 3.73930 36068 ft 454 kts 206°
2026-05-08 15:00 50.37870 3.69977 36078 ft 454 kts 205°
2026-05-08 15:00 50.32089 3.66059 36075 ft 457 kts 206°
2026-05-08 15:01 50.26243 3.62111 36060 ft 457 kts 206°
2026-05-08 15:01 50.20394 3.58171 36063 ft 457 kts 206°
2026-05-08 15:02 50.14579 3.54264 36060 ft 457 kts 206°
2026-05-08 15:02 50.08736 3.50349 36056 ft 457 kts 206°
2026-05-08 15:03 50.02886 3.46439 36066 ft 457 kts 206°
2026-05-08 15:03 49.97034 3.42539 36065 ft 457 kts 206°
2026-05-08 15:04 49.91230 3.38681 36052 ft 457 kts 206°
2026-05-08 15:04 49.85371 3.34796 36062 ft 457 kts 206°
2026-05-08 15:05 49.79509 3.30920 36053 ft 457 kts 206°
2026-05-08 15:05 49.73646 3.27053 36051 ft 457 kts 206°
2026-05-08 15:06 49.67835 3.23231 36036 ft 458 kts 206°
2026-05-08 15:06 49.61958 3.19376 36046 ft 458 kts 206°
2026-05-08 15:07 49.56123 3.15558 36042 ft 458 kts 206°
2026-05-08 15:07 49.50245 3.11718 36035 ft 459 kts 207°
2026-05-08 15:08 49.47436 3.09485 36020 ft 453 kts 218°
2026-05-08 15:08 49.45712 3.07681 36046 ft 453 kts 218°
2026-05-08 15:08 49.39581 3.01478 36037 ft 452 kts 218°
2026-05-08 15:09 49.34320 2.96147 36038 ft 453 kts 218°
2026-05-08 15:09 49.29059 2.90829 36036 ft 453 kts 218°
2026-05-08 15:10 49.23805 2.85530 36028 ft 451 kts 218°
2026-05-08 15:10 49.18564 2.80258 36038 ft 451 kts 218°
2026-05-08 15:11 49.13315 2.74992 36039 ft 451 kts 218°
2026-05-08 15:11 49.08063 2.69737 36039 ft 451 kts 218°
2026-05-08 15:12 49.02869 2.64553 36041 ft 450 kts 218°
2026-05-08 15:12 48.97646 2.59351 36044 ft 450 kts 218°
2026-05-08 15:13 48.92394 2.54137 36022 ft 450 kts 218°
2026-05-08 15:13 48.87132 2.48924 36017 ft 450 kts 218°
2026-05-08 15:14 48.81900 2.43755 36021 ft 450 kts 218°
2026-05-08 15:14 48.76684 2.38615 36020 ft 450 kts 218°
2026-05-08 15:15 48.71429 2.33448 36021 ft 450 kts 218°
2026-05-08 15:15 48.66173 2.28294 36020 ft 450 kts 218°
2026-05-08 15:16 48.60940 2.23175 36011 ft 450 kts 218°
2026-05-08 15:16 48.55357 2.18870 36005 ft 460 kts 198°
2026-05-08 15:17 48.49066 2.16721 35994 ft 463 kts 197°
2026-05-08 15:17 48.42804 2.14655 36011 ft 463 kts 197°
2026-05-08 15:18 48.36521 2.12628 36019 ft 460 kts 197°
2026-05-08 15:18 48.30235 2.10633 36009 ft 461 kts 194°
2026-05-08 15:19 48.27004 2.10446 35991 ft 469 kts 178°
2026-05-08 15:19 48.23800 2.11074 36015 ft 472 kts 177°
2026-05-08 15:19 48.17276 2.12351 36011 ft 471 kts 176°
2026-05-08 15:20 48.10850 2.12611 36027 ft 456 kts 193°
2026-05-08 15:20 48.04496 2.11448 36010 ft 460 kts 192°
2026-05-08 15:21 47.98176 2.10258 36014 ft 460 kts 192°
2026-05-08 15:21 47.91855 2.09051 36018 ft 458 kts 192°
2026-05-08 15:22 47.85534 2.07846 36019 ft 458 kts 192°
2026-05-08 15:22 47.79207 2.06644 35996 ft 458 kts 192°
2026-05-08 15:23 47.72891 2.05446 35988 ft 455 kts 192°
2026-05-08 15:23 47.66663 2.04268 35986 ft 454 kts 192°
2026-05-08 15:24 47.60642 2.01976 36013 ft 443 kts 206°
2026-05-08 15:24 47.54842 1.98689 35981 ft 444 kts 205°
2026-05-08 15:25 47.49086 1.95371 35974 ft 444 kts 205°
2026-05-08 15:25 47.43341 1.92053 35976 ft 444 kts 205°
2026-05-08 15:26 47.37590 1.88738 35965 ft 444 kts 205°
2026-05-08 15:26 47.31845 1.85434 35963 ft 442 kts 205°
2026-05-08 15:27 47.26128 1.82154 35966 ft 442 kts 205°
2026-05-08 15:27 47.20434 1.78902 35967 ft 442 kts 205°
2026-05-08 15:28 47.14684 1.75660 35955 ft 442 kts 204°
2026-05-08 15:28 47.08958 1.72435 35961 ft 440 kts 204°
2026-05-08 15:29 47.03229 1.69215 35962 ft 440 kts 204°
2026-05-08 15:29 46.97532 1.66021 35965 ft 440 kts 204°
2026-05-08 15:30 46.91856 1.62846 35967 ft 438 kts 204°
2026-05-08 15:30 46.86155 1.59665 35963 ft 436 kts 204°
2026-05-08 15:31 46.80485 1.56507 35965 ft 437 kts 204°
2026-05-08 15:31 46.74832 1.53366 35961 ft 437 kts 204°
2026-05-08 15:32 46.69144 1.50213 35958 ft 437 kts 204°
2026-05-08 15:32 46.63493 1.47087 35955 ft 437 kts 204°
2026-05-08 15:33 46.57800 1.43945 35949 ft 437 kts 204°
2026-05-08 15:33 46.52150 1.40835 35942 ft 436 kts 203°
2026-05-08 15:34 46.46489 1.37725 35947 ft 436 kts 203°
2026-05-08 15:34 46.40817 1.34615 35948 ft 436 kts 203°
2026-05-08 15:35 46.35137 1.31509 35938 ft 435 kts 203°
2026-05-08 15:35 46.29506 1.28436 35951 ft 435 kts 203°
2026-05-08 15:36 46.24792 1.25869 35944 ft 435 kts 203°
2026-05-08 15:36 46.18179 1.22275 35947 ft 435 kts 203°
2026-05-08 15:37 46.12504 1.19199 35959 ft 434 kts 202°
2026-05-08 15:37 46.06884 1.16159 35960 ft 433 kts 202°
2026-05-08 15:38 46.01241 1.13112 35963 ft 433 kts 202°
2026-05-08 15:38 45.96536 1.10578 35959 ft 433 kts 202°
2026-05-08 15:39 45.90891 1.07542 35961 ft 433 kts 201°
2026-05-08 15:39 45.85228 1.04503 35963 ft 433 kts 201°
2026-05-08 15:40 45.80032 1.00492 35972 ft 428 kts 220°
2026-05-08 15:40 45.75384 0.95053 35949 ft 431 kts 219°
2026-05-08 15:41 45.70748 0.89556 35945 ft 432 kts 219°
2026-05-08 15:41 45.66154 0.84076 35942 ft 432 kts 219°
2026-05-08 15:42 45.61526 0.78562 35945 ft 432 kts 219°
2026-05-08 15:42 45.56900 0.73064 35938 ft 433 kts 219°
2026-05-08 15:43 45.52275 0.67577 35928 ft 434 kts 219°
2026-05-08 15:43 45.47627 0.62077 35930 ft 434 kts 218°
2026-05-08 15:44 45.43010 0.56625 35926 ft 434 kts 218°
2026-05-08 15:44 45.38377 0.51165 35922 ft 434 kts 218°
2026-05-08 15:45 45.33741 0.45715 35919 ft 434 kts 218°
2026-05-08 15:45 45.29068 0.40233 35917 ft 434 kts 218°
2026-05-08 15:46 45.24394 0.34762 35917 ft 436 kts 218°
2026-05-08 15:46 45.19778 0.29370 35918 ft 437 kts 218°
2026-05-08 15:47 45.15094 0.23912 35919 ft 439 kts 217°
2026-05-08 15:47 45.10373 0.18421 35916 ft 439 kts 217°
2026-05-08 15:48 45.03280 0.10196 35913 ft 439 kts 217°
2026-05-08 15:49 44.98560 0.04739 35912 ft 439 kts 217°
2026-05-08 15:49 44.93838 -0.00710 35925 ft 438 kts 217°
2026-05-08 15:50 44.89129 -0.06132 35919 ft 439 kts 217°
2026-05-08 15:50 44.84387 -0.11579 35917 ft 439 kts 217°
2026-05-08 15:51 44.79653 -0.17005 35915 ft 439 kts 216°
2026-05-08 15:51 44.74904 -0.22438 35912 ft 439 kts 216°
2026-05-08 15:52 44.70160 -0.27852 35916 ft 439 kts 216°
2026-05-08 15:52 44.65426 -0.33229 35914 ft 439 kts 214°
2026-05-08 15:53 44.60400 -0.38029 35924 ft 438 kts 212°
2026-05-08 15:53 44.55372 -0.42872 35922 ft 438 kts 212°
2026-05-08 15:54 44.50388 -0.47687 35918 ft 438 kts 212°
2026-05-08 15:54 44.45366 -0.52532 35915 ft 438 kts 212°
2026-05-08 15:55 44.40356 -0.57353 35924 ft 437 kts 212°
2026-05-08 15:55 44.32852 -0.64558 35915 ft 436 kts 212°
2026-05-08 15:56 44.27882 -0.69296 35911 ft 435 kts 211°
2026-05-08 15:56 44.22820 -0.73946 35915 ft 436 kts 211°
2026-05-08 15:57 44.17753 -0.78608 35907 ft 435 kts 211°
2026-05-08 15:57 44.12686 -0.83262 35902 ft 436 kts 211°
2026-05-08 15:58 44.07620 -0.87905 35906 ft 436 kts 210°
2026-05-08 15:58 44.02588 -0.92508 35903 ft 436 kts 210°
2026-05-08 15:59 43.97556 -0.97101 35896 ft 434 kts 210°
2026-05-08 15:59 43.92491 -1.01714 35889 ft 435 kts 210°
2026-05-08 16:00 43.87448 -1.06298 35885 ft 434 kts 210°
2026-05-08 16:00 43.82394 -1.10883 35885 ft 434 kts 211°
2026-05-08 16:01 43.77380 -1.15422 35905 ft 434 kts 211°
2026-05-08 16:01 43.72305 -1.20006 35887 ft 435 kts 211°
2026-05-08 16:02 43.67226 -1.24586 35886 ft 435 kts 211°
2026-05-08 16:02 43.62179 -1.29126 35890 ft 435 kts 211°
2026-05-08 16:03 43.57158 -1.33635 35888 ft 433 kts 211°
2026-05-08 16:03 43.52097 -1.38169 35886 ft 434 kts 211°
2026-05-08 16:04 43.47045 -1.42687 35884 ft 434 kts 211°
2026-05-08 16:04 43.41969 -1.47217 35867 ft 434 kts 212°
2026-05-08 16:05 43.36950 -1.51687 35885 ft 432 kts 212°
2026-05-08 16:05 43.31894 -1.56183 35891 ft 432 kts 212°
2026-05-08 16:06 43.26788 -1.60528 35875 ft 431 kts 203°
2026-05-08 16:06 43.23919 -1.61658 35892 ft 430 kts 189°
2026-05-08 16:06 43.20963 -1.62235 35874 ft 433 kts 189°
2026-05-08 16:07 43.15053 -1.63321 35898 ft 430 kts 189°
2026-05-08 16:07 43.09104 -1.64327 35908 ft 430 kts 188°
2026-05-08 16:08 43.03197 -1.65304 35916 ft 430 kts 188°
2026-05-08 16:08 42.97263 -1.66282 35910 ft 429 kts 189°
2026-05-08 16:09 42.92304 -1.67098 35913 ft 428 kts 189°
2026-05-08 16:09 42.85432 -1.68226 35939 ft 428 kts 189°
2026-05-08 16:10 42.79503 -1.69198 35936 ft 428 kts 189°
2026-05-08 16:10 42.73650 -1.70384 35917 ft 425 kts 200°
2026-05-08 16:11 42.68278 -1.73728 35818 ft 426 kts 206°
2026-05-08 16:11 42.65618 -1.75466 35583 ft 424 kts 206°
2026-05-08 16:11 42.62959 -1.77229 35361 ft 424 kts 207°
2026-05-08 16:12 42.60313 -1.78996 35141 ft 425 kts 207°
2026-05-08 16:12 42.57694 -1.80751 34957 ft 424 kts 207°
2026-05-08 16:12 42.52395 -1.84302 34923 ft 425 kts 207°
2026-05-08 16:13 42.47082 -1.87856 34923 ft 425 kts 207°
2026-05-08 16:13 42.41781 -1.91395 35080 ft 426 kts 207°
2026-05-08 16:14 42.39125 -1.93165 35440 ft 425 kts 207°
2026-05-08 16:14 42.36519 -1.94901 35734 ft 424 kts 208°
2026-05-08 16:14 42.33866 -1.96669 35923 ft 425 kts 208°
2026-05-08 16:14 42.31219 -1.98433 35925 ft 425 kts 208°
2026-05-08 16:15 42.25923 -2.01950 35923 ft 423 kts 207°
2026-05-08 16:15 42.20689 -2.05412 35922 ft 423 kts 207°
2026-05-08 16:16 42.15393 -2.08913 35910 ft 423 kts 208°
2026-05-08 16:16 42.10104 -2.12403 35922 ft 423 kts 208°
2026-05-08 16:17 42.05710 -2.15298 35918 ft 422 kts 208°
2026-05-08 16:17 42.02175 -2.17624 35675 ft 422 kts 208°
2026-05-08 16:17 41.99584 -2.19327 35650 ft 419 kts 208°
2026-05-08 16:18 41.96953 -2.21055 35829 ft 420 kts 208°
2026-05-08 16:18 41.94319 -2.22783 35921 ft 422 kts 208°
2026-05-08 16:18 41.89061 -2.26228 35925 ft 420 kts 208°
2026-05-08 16:19 41.83799 -2.29669 35941 ft 421 kts 208°
2026-05-08 16:19 41.78565 -2.33085 35927 ft 421 kts 208°
2026-05-08 16:20 41.73314 -2.36507 35921 ft 421 kts 208°
2026-05-08 16:20 41.68036 -2.39939 35928 ft 421 kts 208°
2026-05-08 16:21 41.62789 -2.43346 35928 ft 421 kts 208°
2026-05-08 16:21 41.57513 -2.46764 35928 ft 421 kts 208°
2026-05-08 16:22 41.53138 -2.49595 35911 ft 421 kts 209°
2026-05-08 16:22 41.47031 -2.53538 35929 ft 418 kts 209°
2026-05-08 16:23 41.41787 -2.56916 35934 ft 419 kts 209°
2026-05-08 16:23 41.36534 -2.60295 35933 ft 419 kts 208°
2026-05-08 16:24 41.31975 -2.62462 35921 ft 425 kts 191°
2026-05-08 16:24 41.25012 -2.62249 35927 ft 432 kts 182°
2026-05-08 16:25 41.19003 -2.61774 35932 ft 433 kts 182°
2026-05-08 16:25 41.14004 -2.61337 35926 ft 433 kts 181°
2026-05-08 16:26 41.07990 -2.60802 35925 ft 433 kts 182°
2026-05-08 16:26 41.02014 -2.60270 35930 ft 433 kts 182°
2026-05-08 16:27 40.95975 -2.59728 35931 ft 433 kts 181°
2026-05-08 16:27 40.89990 -2.59188 35932 ft 433 kts 182°
2026-05-08 16:28 40.83966 -2.58644 35932 ft 432 kts 183°
2026-05-08 16:28 40.78012 -2.58108 35928 ft 431 kts 183°
2026-05-08 16:29 40.72021 -2.57570 35925 ft 431 kts 183°
2026-05-08 16:29 40.66026 -2.57033 35928 ft 431 kts 183°
2026-05-08 16:30 40.60040 -2.56497 35925 ft 431 kts 183°
2026-05-08 16:30 40.54056 -2.55962 35928 ft 431 kts 183°
2026-05-08 16:31 40.48066 -2.55428 35924 ft 431 kts 183°
2026-05-08 16:31 40.42112 -2.54898 35910 ft 431 kts 183°
2026-05-08 16:32 40.36262 -2.55254 35916 ft 409 kts 204°
2026-05-08 16:32 40.30885 -2.57731 35912 ft 410 kts 205°
2026-05-08 16:33 40.25538 -2.60341 35911 ft 409 kts 206°
2026-05-08 16:33 40.20255 -2.62978 35916 ft 406 kts 207°
2026-05-08 16:34 40.15029 -2.65594 35916 ft 401 kts 207°
2026-05-08 16:34 40.09813 -2.68202 35925 ft 399 kts 207°
2026-05-08 16:35 40.04641 -2.70785 35921 ft 399 kts 207°
2026-05-08 16:35 39.99453 -2.73370 35900 ft 399 kts 207°
2026-05-08 16:36 39.94326 -2.75921 35905 ft 395 kts 207°
2026-05-08 16:36 39.89176 -2.78479 35905 ft 395 kts 207°
2026-05-08 16:37 39.84050 -2.81022 35907 ft 395 kts 207°
2026-05-08 16:37 39.78913 -2.83566 35899 ft 395 kts 207°
2026-05-08 16:38 39.73781 -2.86104 35902 ft 392 kts 208°
2026-05-08 16:38 39.68695 -2.88614 35897 ft 390 kts 208°
2026-05-08 16:39 39.63640 -2.91106 35893 ft 390 kts 208°
2026-05-08 16:39 39.58560 -2.93609 35892 ft 390 kts 208°
2026-05-08 16:40 39.53479 -2.96112 35873 ft 389 kts 208°
2026-05-08 16:40 39.48482 -2.98571 35883 ft 384 kts 208°
2026-05-08 16:41 39.43477 -3.01029 35886 ft 385 kts 208°
2026-05-08 16:42 39.35967 -3.04700 35882 ft 385 kts 208°
2026-05-08 16:42 39.30967 -3.07136 35835 ft 382 kts 208°
2026-05-08 16:43 39.26018 -3.09543 35881 ft 379 kts 208°
2026-05-08 16:43 39.21110 -3.11927 35877 ft 379 kts 208°
2026-05-08 16:44 39.16178 -3.14318 35878 ft 379 kts 208°
2026-05-08 16:44 39.11247 -3.16706 35877 ft 379 kts 208°
2026-05-08 16:45 39.06311 -3.19093 35867 ft 378 kts 208°
2026-05-08 16:45 39.01397 -3.21465 35877 ft 377 kts 208°
2026-05-08 16:46 38.96484 -3.23833 35882 ft 377 kts 208°
2026-05-08 16:46 38.91605 -3.26180 35880 ft 377 kts 208°
2026-05-08 16:47 38.86690 -3.28541 35880 ft 377 kts 208°
2026-05-08 16:47 38.81783 -3.30895 35876 ft 375 kts 208°
2026-05-08 16:48 38.76899 -3.33234 35885 ft 374 kts 208°
2026-05-08 16:48 38.72025 -3.35566 35890 ft 374 kts 208°
2026-05-08 16:49 38.67155 -3.37892 35888 ft 374 kts 208°
2026-05-08 16:49 38.62311 -3.40202 35881 ft 374 kts 208°
2026-05-08 16:50 38.57431 -3.42526 35871 ft 373 kts 208°
2026-05-08 16:50 38.52579 -3.44834 35879 ft 371 kts 208°
2026-05-08 16:51 38.47746 -3.47129 35882 ft 371 kts 208°
2026-05-08 16:51 38.43013 -3.49373 35883 ft 370 kts 208°
2026-05-08 16:52 38.38178 -3.51662 35867 ft 370 kts 208°
2026-05-08 16:52 38.33334 -3.53953 35875 ft 371 kts 208°
2026-05-08 16:53 38.26103 -3.57366 35871 ft 370 kts 208°
2026-05-08 16:53 38.21266 -3.59645 35875 ft 370 kts 208°
2026-05-08 16:54 38.16568 -3.62155 35863 ft 359 kts 220°
2026-05-08 16:54 38.14772 -3.64295 35878 ft 352 kts 232°
2026-05-08 16:54 38.13245 -3.66745 35829 ft 354 kts 233°
2026-05-08 16:55 38.10349 -3.71785 35867 ft 352 kts 235°
2026-05-08 16:55 38.07553 -3.76886 35872 ft 352 kts 236°
2026-05-08 16:56 38.04801 -3.81984 35885 ft 353 kts 236°
2026-05-08 16:56 38.02040 -3.87112 35601 ft 351 kts 236°
2026-05-08 16:57 38.00659 -3.89678 34960 ft 350 kts 236°
2026-05-08 16:57 37.99298 -3.92203 34546 ft 343 kts 236°
2026-05-08 16:57 37.97965 -3.94675 34158 ft 337 kts 236°
2026-05-08 16:57 37.96657 -3.97097 33761 ft 332 kts 236°
2026-05-08 16:58 37.95327 -3.99558 33328 ft 344 kts 236°
2026-05-08 16:58 37.93958 -4.02091 32847 ft 351 kts 236°
2026-05-08 16:58 37.92568 -4.04661 32380 ft 356 kts 236°
2026-05-08 16:58 37.91175 -4.07233 31864 ft 360 kts 236°
2026-05-08 16:59 37.89754 -4.09855 31143 ft 364 kts 236°
2026-05-08 16:59 37.88306 -4.12525 30327 ft 370 kts 236°
2026-05-08 16:59 37.86830 -4.15245 29388 ft 376 kts 236°
2026-05-08 16:59 37.85338 -4.17992 28481 ft 381 kts 236°
2026-05-08 17:00 37.83839 -4.20748 27753 ft 388 kts 236°
2026-05-08 17:00 37.82299 -4.23578 27136 ft 391 kts 236°
2026-05-08 17:00 37.80748 -4.26427 26502 ft 393 kts 235°
2026-05-08 17:00 37.79195 -4.29276 25865 ft 393 kts 235°
2026-05-08 17:01 37.77652 -4.32104 25242 ft 391 kts 235°
2026-05-08 17:01 37.76106 -4.34935 24654 ft 389 kts 235°
2026-05-08 17:01 37.74602 -4.37687 24377 ft 379 kts 235°
2026-05-08 17:01 37.73125 -4.40389 24131 ft 367 kts 234°
2026-05-08 17:02 37.71692 -4.43007 23910 ft 356 kts 234°
2026-05-08 17:02 37.70305 -4.45540 23715 ft 345 kts 234°
2026-05-08 17:02 37.68957 -4.47999 23525 ft 335 kts 234°
2026-05-08 17:02 37.67668 -4.50349 23337 ft 325 kts 234°
2026-05-08 17:03 37.66400 -4.52659 23155 ft 315 kts 234°
2026-05-08 17:03 37.65189 -4.54865 23009 ft 305 kts 234°
2026-05-08 17:03 37.63991 -4.57037 22849 ft 296 kts 233°
2026-05-08 17:03 37.62511 -4.58808 22404 ft 296 kts 214°
2026-05-08 17:04 37.60752 -4.60098 22101 ft 291 kts 213°
2026-05-08 17:04 37.59006 -4.61400 21769 ft 292 kts 213°
2026-05-08 17:04 37.57250 -4.62687 21370 ft 291 kts 213°
2026-05-08 17:04 37.55494 -4.63960 20958 ft 290 kts 212°
2026-05-08 17:05 37.53741 -4.65220 20540 ft 290 kts 212°
2026-05-08 17:05 37.51984 -4.66472 20130 ft 290 kts 211°
2026-05-08 17:05 37.50107 -4.67397 19661 ft 294 kts 202°
2026-05-08 17:05 37.48161 -4.68225 19245 ft 294 kts 203°
2026-05-08 17:06 37.46219 -4.69055 18831 ft 295 kts 203°
2026-05-08 17:06 37.44266 -4.69888 18411 ft 296 kts 203°
2026-05-08 17:06 37.42338 -4.70710 17956 ft 296 kts 202°
2026-05-08 17:06 37.40379 -4.71544 17502 ft 297 kts 202°
2026-05-08 17:07 37.38425 -4.72376 17058 ft 296 kts 202°
2026-05-08 17:07 37.36481 -4.73204 16620 ft 296 kts 202°
2026-05-08 17:07 37.34524 -4.74037 16184 ft 295 kts 203°
2026-05-08 17:07 37.32602 -4.74854 15773 ft 295 kts 202°
2026-05-08 17:08 37.30653 -4.75682 15345 ft 295 kts 202°
2026-05-08 17:08 37.28707 -4.76509 14918 ft 295 kts 202°
2026-05-08 17:08 37.26770 -4.77331 14507 ft 294 kts 202°
2026-05-08 17:08 37.24828 -4.78154 14095 ft 294 kts 202°
2026-05-08 17:09 37.22884 -4.78979 13692 ft 294 kts 201°
2026-05-08 17:09 37.20974 -4.79788 13235 ft 294 kts 201°
2026-05-08 17:09 37.18959 -4.80259 12729 ft 301 kts 184°
2026-05-08 17:09 37.16863 -4.80207 12277 ft 301 kts 184°
2026-05-08 17:10 37.14766 -4.80183 11840 ft 301 kts 183°
2026-05-08 17:10 37.12667 -4.80159 11400 ft 301 kts 184°
2026-05-08 17:10 37.10560 -4.80136 10929 ft 303 kts 183°
2026-05-08 17:10 37.08446 -4.80112 10505 ft 303 kts 183°
2026-05-08 17:11 37.06354 -4.80088 10079 ft 304 kts 183°
2026-05-08 17:11 37.04221 -4.80064 9572 ft 307 kts 182°
2026-05-08 17:11 37.02081 -4.80041 9104 ft 307 kts 182°
2026-05-08 17:11 36.99950 -4.80017 8670 ft 305 kts 182°
2026-05-08 17:12 36.97820 -4.79994 8203 ft 306 kts 182°
2026-05-08 17:12 36.95718 -4.79972 7770 ft 304 kts 182°
2026-05-08 17:12 36.93613 -4.79933 7332 ft 298 kts 178°
2026-05-08 17:12 36.92267 -4.79593 6997 ft 296 kts 163°
2026-05-08 17:13 36.90356 -4.78725 6573 ft 288 kts 162°
2026-05-08 17:13 36.87909 -4.77645 6046 ft 276 kts 162°
2026-05-08 17:13 36.86707 -4.77083 5753 ft 270 kts 158°
2026-05-08 17:13 36.85066 -4.76001 5312 ft 262 kts 153°
2026-05-08 17:14 36.83500 -4.74952 4976 ft 254 kts 153°
2026-05-08 17:14 36.81963 -4.73916 4583 ft 247 kts 151°
2026-05-08 17:14 36.80477 -4.72892 4197 ft 241 kts 151°
2026-05-08 17:14 36.79022 -4.71899 3829 ft 235 kts 151°
2026-05-08 17:15 36.77659 -4.70834 3483 ft 235 kts 135°
2026-05-08 17:15 36.76790 -4.69108 3053 ft 237 kts 111°
2026-05-08 17:15 36.76306 -4.67168 2948 ft 230 kts 108°
2026-05-08 17:15 36.75814 -4.65256 2565 ft 233 kts 113°
2026-05-08 17:16 36.75054 -4.63506 2391 ft 226 kts 126°
2026-05-08 17:16 36.74168 -4.61907 2159 ft 222 kts 123°
2026-05-08 17:16 36.73344 -4.60310 1787 ft 218 kts 123°
2026-05-08 17:16 36.72561 -4.58735 1395 ft 207 kts 121°
2026-05-08 17:17 36.71850 -4.57225 1007 ft 195 kts 119°
2026-05-08 17:17 36.71217 -4.55813 802 ft 176 kts 118°
2026-05-08 17:17 36.70671 -4.54534 585 ft 157 kts 117°
2026-05-08 17:17 36.70212 -4.53419 412 ft 141 kts 116°
2026-05-08 17:18 36.69757 -4.52293 315 ft 153 kts 117°
2026-05-08 17:18 36.69265 -4.51144 155 ft 144 kts 119°
2026-05-08 17:18 36.68809 -4.50070 56 ft 132 kts 117°
2026-05-08 17:18 36.68437 -4.49193 49 ft 89 kts 118°
2026-05-08 17:19 36.68239 -4.48729 44 ft 41 kts 122°
2026-05-08 17:19 36.68047 -4.48503 40 ft 15 kts 149°
2026-05-08 17:19 36.67963 -4.48467 42 ft 12 kts 186°
2026-05-08 17:19 36.67878 -4.48507 43 ft 14 kts 208°
2026-05-08 17:20 36.67840 -4.48599 43 ft 14 kts 300°
2026-05-08 17:20 36.67890 -4.48719 43 ft 17 kts 297°
2026-05-08 17:20 36.67947 -4.48857 43 ft 19 kts 297°
2026-05-08 17:20 36.68013 -4.49016 44 ft 22 kts 297°
2026-05-08 17:21 36.68088 -4.49185 44 ft 24 kts 297°
2026-05-08 17:21 36.68154 -4.49343 44 ft 14 kts 298°
2026-05-08 17:21 36.68164 -4.49446 41 ft 12 kts 239°
2026-05-08 17:21 36.68106 -4.49515 44 ft 13 kts 219°
2026-05-08 17:22 36.68026 -4.49600 44 ft 17 kts 222°
2026-05-08 17:22 36.67927 -4.49711 44 ft 21 kts 221°
2026-05-08 17:22 36.67809 -4.49809 44 ft 19 kts 166°
2026-05-08 17:22 36.67731 -4.49703 44 ft 15 kts 131°
2026-05-08 17:23 36.67665 -4.49609 44 ft 13 kts 131°
2026-05-08 17:23 36.67607 -4.49528 44 ft 12 kts 131°
2026-05-08 17:23 36.67562 -4.49456 44 ft 10 kts 110°
2026-05-08 17:23 36.67594 -4.49372 44 ft 12 kts 47°
2026-05-08 17:24 36.67602 -4.49353 44 ft 1 kts 75°
2026-05-08 17:24 36.67600 -4.49347 44 ft 1 kts 114°
2026-05-08 17:24 36.67585 -4.49308 43 ft 5 kts 114°
2026-05-08 17:24 36.67583 -4.49303 44 ft 0 kts 114°